Kalaeloa, HI

6:02 AM HST on October 17, 2017 (GMT -1000)
Kalaeloa (John Rodgers Field)

Weather History for PHJR - June, 2013

Change the Weather History Date:

Friday, June 28, 2013

  Actual Average (PHHI) Record (PHHI)
Temperature  
Mean Temperature 76 °F -  
Max Temperature 84 °F 79 °F 84 °F (2002)
Min Temperature 68 °F 66 °F 64 °F (2000)
Cooling Degree Days 11    
Growing Degree Days 26 (Base 50)    
Moisture  
Dew Point 65 °F    
Average Humidity 71    
Maximum Humidity 89    
Minimum Humidity 49    
Precipitation  
Precipitation 0.03 in - - ()
Sea Level Pressure  
Sea Level Pressure 30.02 in    
Wind  
Wind Speed 3 mph (ENE)    
Max Wind Speed 12 mph    
Max Gust Speed 22 mph    
Visibility 10 miles    
Events Rain    
Averages and records for this station are not official NWS values.
T = Trace of Precipitation, MM = Missing Value Source: NWS Daily Summary

Daily Weather History Graph

Daily Weather History Graph

Search for Another Location

Airport or City:

Trip Planner

Search our weather history database for the weather conditions in past years. The results will help you decide how hot, cold, wet, or windy it might be!

Date:

Astronomy

Jun. 28, 2013 Rise Set
Actual Time 5:53 AM HST 7:18 PM HST
Civil Twilight 5:28 AM HST 7:43 PM HST
Nautical Twilight 4:58 AM HST 8:12 PM HST
Astronomical Twilight 4:27 AM HST 8:43 PM HST
Moon 11:45 PM HST (6/28) 11:25 AM HST (6/28)
Length of Visible Light 14h 14m
Length of Day
13h 25m
Waning Gibbous, 64% of the Moon is Illuminated
Jun 28
Waning Gibbous
Jun 29
Last Quarter
Jul 7
New
Jul 15
First Quarter
Jul 22
Full

Hourly Weather History & Observations

Time (HST) Temp. Heat Index Dew Point Humidity Pressure Visibility Wind Dir Wind Speed Gust Speed Precip Events Conditions
12:53 AM 71.1 °F - 64.9 °F 81% 30.04 in 10.0 mi Calm Calm - N/A   Clear
1:09 AM 71.6 °F - 64.4 °F 78% 30.01 in 10.0 mi ENE 3.5 mph - N/A   Partly Cloudy
1:53 AM 70.0 °F - 64.0 °F 81% 30.02 in 10.0 mi Calm Calm - N/A   Clear
2:53 AM 68.0 °F - 63.0 °F 84% 30.01 in 10.0 mi Calm Calm - N/A   Partly Cloudy
3:53 AM 71.1 °F - 64.9 °F 81% 30.01 in 10.0 mi Calm Calm - N/A   Scattered Clouds
4:53 AM 71.1 °F - 64.0 °F 78% 30.01 in 10.0 mi Calm Calm - N/A   Clear
5:01 AM 69.8 °F - 64.4 °F 83% 29.99 in 10.0 mi Calm Calm - N/A   Partly Cloudy
5:53 AM 71.1 °F - 64.9 °F 81% 30.03 in 10.0 mi Calm Calm - N/A   Mostly Cloudy
6:53 AM 72.0 °F - 64.9 °F 78% 30.04 in 10.0 mi Calm Calm - N/A   Partly Cloudy
7:53 AM 77.0 °F - 66.0 °F 69% 30.05 in 10.0 mi Variable 4.6 mph - 0.00 in   Clear
8:53 AM 77.0 °F - 66.0 °F 69% 30.06 in 10.0 mi Variable 3.5 mph - N/A   Mostly Cloudy
9:53 AM 81.0 °F 82.7 °F 64.9 °F 58% 30.05 in 10.0 mi ENE 8.1 mph - N/A   Scattered Clouds
10:53 AM 80.1 °F 82.3 °F 66.9 °F 64% 30.05 in 10.0 mi East 10.4 mph 17.3 mph 0.00 in   Overcast
11:11 AM 75.2 °F - 69.8 °F 83% 30.04 in 7.0 mi East 8.1 mph - 0.02 in Rain Rain
11:24 AM 75.2 °F - 71.6 °F 89% 30.03 in 10.0 mi Variable 3.5 mph - 0.03 in   Overcast
11:53 AM 79.0 °F - 69.1 °F 72% 30.04 in 10.0 mi ENE 6.9 mph - 0.03 in   Mostly Cloudy
12:53 PM 84.0 °F 85.4 °F 64.0 °F 51% 30.01 in 10.0 mi East 10.4 mph 19.6 mph N/A   Clear
1:53 PM 84.0 °F 85.4 °F 64.0 °F 51% 30.00 in 10.0 mi Variable 4.6 mph - N/A   Mostly Cloudy
2:53 PM 84.9 °F 86.6 °F 64.9 °F 51% 29.99 in 10.0 mi Variable 6.9 mph 18.4 mph N/A   Clear
3:53 PM 84.9 °F 86.1 °F 64.0 °F 49% 29.99 in 10.0 mi ENE 11.5 mph 21.9 mph N/A   Clear
4:53 PM 81.0 °F 82.5 °F 64.0 °F 56% 29.99 in 10.0 mi ENE 9.2 mph - N/A   Partly Cloudy
5:53 PM 81.0 °F 82.7 °F 64.9 °F 58% 29.99 in 10.0 mi ENE 10.4 mph 17.3 mph N/A   Partly Cloudy
6:53 PM 77.0 °F - 64.0 °F 64% 30.01 in 10.0 mi Variable 6.9 mph - N/A   Clear
7:53 PM 75.0 °F - 64.0 °F 69% 30.02 in 10.0 mi Calm Calm - N/A   Clear
8:53 PM 73.9 °F - 64.9 °F 73% 30.03 in 10.0 mi Variable 4.6 mph - N/A   Clear
9:53 PM 75.0 °F - 64.9 °F 71% 30.05 in 10.0 mi Calm Calm - N/A   Mostly Cloudy
10:15 PM 73.4 °F - 64.4 °F 73% 30.03 in 10.0 mi Calm Calm - N/A   Overcast
10:53 PM 73.0 °F - 64.9 °F 76% 30.06 in 10.0 mi Calm Calm - N/A   Partly Cloudy
11:53 PM 72.0 °F - 64.9 °F 78% 30.05 in 10.0 mi Calm Calm - N/A   Partly Cloudy